Year,Month,Day,Hour,Minute,Value (Times are PST for windgust in km/hr)
2020,07,10,09,21,1.60
2020,07,10,09,28,6.40
2020,07,10,09,29,6.40
2020,07,10,09,30,4.80
2020,07,10,09,31,4.80
2020,07,10,09,32,6.40
2020,07,10,09,33,6.40
2020,07,10,09,34,6.40
2020,07,10,09,35,6.40
2020,07,10,09,36,6.40
2020,07,10,09,37,4.80
2020,07,10,09,38,4.80
2020,07,10,09,39,4.80
2020,07,10,09,40,4.80
2020,07,10,09,41,6.40
2020,07,10,09,42,6.40
2020,07,10,09,43,6.40
2020,07,10,09,44,6.40
2020,07,10,09,45,4.80
2020,07,10,09,46,4.80
2020,07,10,09,47,4.80
2020,07,10,09,48,4.80
2020,07,10,09,49,6.40
2020,07,10,09,50,4.80
2020,07,10,09,51,6.40
2020,07,10,09,52,4.80
2020,07,10,09,53,4.80
2020,07,10,09,54,8.10
2020,07,10,09,55,4.80
2020,07,10,09,56,6.40
2020,07,10,09,57,6.40
2020,07,10,09,58,4.80
2020,07,10,09,59,4.80
2020,07,10,10,00,4.80
2020,07,10,10,01,3.20
2020,07,10,10,02,4.80
2020,07,10,10,03,4.80
2020,07,10,10,04,4.80
2020,07,10,10,05,8.10
2020,07,10,10,06,8.10
2020,07,10,10,07,8.10
2020,07,10,10,08,6.40
2020,07,10,10,09,6.40
2020,07,10,10,10,4.80
2020,07,10,10,11,8.10
2020,07,10,10,12,9.60
2020,07,10,10,13,14.50
2020,07,10,10,14,8.10
2020,07,10,10,15,12.90
2020,07,10,10,16,6.40
2020,07,10,10,17,4.80
2020,07,10,10,18,6.40
2020,07,10,10,19,14.50
2020,07,10,10,20,12.90
2020,07,10,10,21,8.10
2020,07,10,10,22,11.30
2020,07,10,10,23,6.40
2020,07,10,10,24,6.40
2020,07,10,10,25,3.20
2020,07,10,10,26,3.20
2020,07,10,10,27,12.90
2020,07,10,10,28,12.90
2020,07,10,10,29,3.20
2020,07,10,10,30,6.40
2020,07,10,10,31,9.60
2020,07,10,10,32,9.60
2020,07,10,10,33,8.10
2020,07,10,10,34,8.10
2020,07,10,10,35,8.10
2020,07,10,10,36,8.10
2020,07,10,10,37,8.10
2020,07,10,10,38,9.60
2020,07,10,10,39,8.10
2020,07,10,10,40,11.30
2020,07,10,10,41,9.60
2020,07,10,10,42,8.10
2020,07,10,10,43,9.60
2020,07,10,10,44,8.10
2020,07,10,10,45,11.30
2020,07,10,10,46,4.80
2020,07,10,10,47,11.30
2020,07,10,10,48,11.30
2020,07,10,10,49,14.50
2020,07,10,10,50,16.10
2020,07,10,10,51,9.60
2020,07,10,10,52,8.10
2020,07,10,10,53,12.90
2020,07,10,10,54,16.10
2020,07,10,10,55,19.30
2020,07,10,10,56,4.80
2020,07,10,10,57,6.40
2020,07,10,10,58,14.50
2020,07,10,10,59,14.50
2020,07,10,11,00,11.30
2020,07,10,11,01,12.90
2020,07,10,11,02,20.90
2020,07,10,11,03,12.90
2020,07,10,11,04,16.10
2020,07,10,11,05,19.30
2020,07,10,11,06,19.30
2020,07,10,11,07,17.70
2020,07,10,11,08,17.70
2020,07,10,11,09,14.50
2020,07,10,11,10,14.50
2020,07,10,11,11,14.50
2020,07,10,11,12,17.70
2020,07,10,11,13,17.70
2020,07,10,11,14,20.90
2020,07,10,11,15,20.90
2020,07,10,11,16,14.50
2020,07,10,11,17,19.30
2020,07,10,11,18,17.70
2020,07,10,11,19,6.40
2020,07,10,11,20,16.10
2020,07,10,11,21,17.70
2020,07,10,11,22,19.30
2020,07,10,11,23,11.30
2020,07,10,11,24,12.90
2020,07,10,11,25,20.90
2020,07,10,11,26,19.30
2020,07,10,11,27,14.50
2020,07,10,11,28,8.10
2020,07,10,11,29,19.30
2020,07,10,11,30,19.30
2020,07,10,11,31,8.10
2020,07,10,11,32,19.30
2020,07,10,11,33,16.10
2020,07,10,11,34,16.10
2020,07,10,11,35,12.90
2020,07,10,11,36,14.50
2020,07,10,11,37,17.70
2020,07,10,11,38,12.90
2020,07,10,11,39,9.60
2020,07,10,11,40,20.90
2020,07,10,11,41,14.50
2020,07,10,11,42,16.10
2020,07,10,11,43,11.30
2020,07,10,11,44,14.50
2020,07,10,11,45,16.10
2020,07,10,11,46,14.50
2020,07,10,11,47,16.10
2020,07,10,11,48,20.90
2020,07,10,11,49,14.50
2020,07,10,11,50,14.50
2020,07,10,11,51,16.10
2020,07,10,11,52,14.50
2020,07,10,11,53,20.90
2020,07,10,11,54,19.30
2020,07,10,11,55,12.90
2020,07,10,11,56,8.10
2020,07,10,11,57,17.70
2020,07,10,11,58,14.50
2020,07,10,11,59,14.50
2020,07,10,12,00,11.30
2020,07,10,12,01,14.50
2020,07,10,12,02,12.90
2020,07,10,12,03,16.10
2020,07,10,12,04,17.70
2020,07,10,12,05,30.60
2020,07,10,12,06,27.40
2020,07,10,12,07,19.30
2020,07,10,12,08,19.30
2020,07,10,12,09,19.30
2020,07,10,12,10,16.10
2020,07,10,12,11,12.90
2020,07,10,12,12,14.50
2020,07,10,12,13,17.70
2020,07,10,12,14,19.30
2020,07,10,12,15,19.30
2020,07,10,12,16,19.30
2020,07,10,12,17,20.90
2020,07,10,12,18,17.70
2020,07,10,12,19,27.40
2020,07,10,12,20,16.10
2020,07,10,12,21,19.30
2020,07,10,12,22,29.00
2020,07,10,12,23,16.10
2020,07,10,12,24,24.20
2020,07,10,12,25,14.50
2020,07,10,12,26,14.50
2020,07,10,12,27,6.40
2020,07,10,12,28,19.30
2020,07,10,12,29,16.10
2020,07,10,12,30,16.10
2020,07,10,12,31,20.90
2020,07,10,12,32,22.50
2020,07,10,12,33,16.10
2020,07,10,12,34,19.30
2020,07,10,12,35,17.70
2020,07,10,12,36,16.10
2020,07,10,12,37,11.30
2020,07,10,12,38,20.90
2020,07,10,12,39,9.60
2020,07,10,12,40,6.40
2020,07,10,12,41,16.10
2020,07,10,12,42,17.70
2020,07,10,12,43,11.30
2020,07,10,12,44,8.10
2020,07,10,12,45,9.60
2020,07,10,12,46,12.90
2020,07,10,12,47,16.10
2020,07,10,12,48,16.10
2020,07,10,12,49,20.90
2020,07,10,12,50,8.10
2020,07,10,12,51,16.10
2020,07,10,12,52,16.10
2020,07,10,12,53,22.50
2020,07,10,12,54,16.10
2020,07,10,12,55,20.90
2020,07,10,12,56,12.90
2020,07,10,12,57,11.30
2020,07,10,12,58,12.90
2020,07,10,12,59,11.30
2020,07,10,13,00,14.50
2020,07,10,13,01,16.10
2020,07,10,13,02,19.30
2020,07,10,13,03,29.00
2020,07,10,13,04,20.90
2020,07,10,13,05,16.10
2020,07,10,13,06,9.60
2020,07,10,13,07,6.40
2020,07,10,13,08,17.70
2020,07,10,13,09,12.90
2020,07,10,13,10,12.90
2020,07,10,13,11,20.90
2020,07,10,13,12,14.50
2020,07,10,13,13,6.40
2020,07,10,13,14,12.90
2020,07,10,13,15,14.50
2020,07,10,13,16,16.10
2020,07,10,13,17,14.50
2020,07,10,13,18,12.90
2020,07,10,13,19,12.90
2020,07,10,13,20,12.90
2020,07,10,13,21,14.50
2020,07,10,13,22,29.00
2020,07,10,13,23,22.50
2020,07,10,13,24,12.90
2020,07,10,13,25,4.80
2020,07,10,13,26,6.40
2020,07,10,13,27,14.50
2020,07,10,13,28,14.50
2020,07,10,13,29,11.30
2020,07,10,13,30,8.10
2020,07,10,13,31,16.10
2020,07,10,13,32,11.30
2020,07,10,13,33,22.50
2020,07,10,13,34,17.70
2020,07,10,13,35,14.50
2020,07,10,13,36,16.10
2020,07,10,13,37,12.90
2020,07,10,13,38,19.30
2020,07,10,13,39,20.90
2020,07,10,13,40,19.30
2020,07,10,13,41,17.70
2020,07,10,13,42,14.50
2020,07,10,13,43,20.90
2020,07,10,13,44,20.90
2020,07,10,13,45,25.70
2020,07,10,13,46,19.30
2020,07,10,13,47,17.70
2020,07,10,13,48,25.70
2020,07,10,13,49,19.30
2020,07,10,13,50,19.30
2020,07,10,13,51,20.90
2020,07,10,13,52,19.30
2020,07,10,13,53,22.50
2020,07,10,13,54,12.90
2020,07,10,13,55,11.30
2020,07,10,13,56,17.70
2020,07,10,13,57,22.50
2020,07,10,13,58,17.70
2020,07,10,13,59,12.90
2020,07,10,14,00,17.70
2020,07,10,14,01,12.90
2020,07,10,14,02,14.50
2020,07,10,14,03,14.50
2020,07,10,14,04,12.90
2020,07,10,14,05,14.50
2020,07,10,14,06,16.10
2020,07,10,14,07,9.60
2020,07,10,14,08,22.50
2020,07,10,14,09,17.70
2020,07,10,14,10,22.50
2020,07,10,14,11,20.90
2020,07,10,14,12,19.30
2020,07,10,14,13,22.50
2020,07,10,14,14,16.10
2020,07,10,14,15,24.20
2020,07,10,14,16,22.50
2020,07,10,14,17,22.50
2020,07,10,14,18,20.90
2020,07,10,14,19,22.50
2020,07,10,14,20,22.50
2020,07,10,14,21,22.50
2020,07,10,14,22,27.40
2020,07,10,14,23,17.70
2020,07,10,14,24,19.30
2020,07,10,14,25,14.50
2020,07,10,14,26,9.60
2020,07,10,14,27,14.50
2020,07,10,14,28,19.30
2020,07,10,14,29,20.90
2020,07,10,14,30,12.90
2020,07,10,14,31,9.60
2020,07,10,14,32,12.90
2020,07,10,14,33,17.70
2020,07,10,14,34,12.90
2020,07,10,14,35,12.90
2020,07,10,14,36,19.30
2020,07,10,14,37,17.70
2020,07,10,14,38,12.90
2020,07,10,14,39,29.00
2020,07,10,14,40,19.30
2020,07,10,14,41,19.30
2020,07,10,14,42,17.70
2020,07,10,14,43,19.30
2020,07,10,14,44,11.30
2020,07,10,14,45,8.10
2020,07,10,14,46,24.20
2020,07,10,14,47,16.10
2020,07,10,14,48,20.90
2020,07,10,14,49,25.70
2020,07,10,14,50,22.50
2020,07,10,14,51,12.90
2020,07,10,14,52,17.70
2020,07,10,14,53,22.50
2020,07,10,14,54,20.90
2020,07,10,14,55,17.70
2020,07,10,14,56,22.50
2020,07,10,14,57,12.90
2020,07,10,14,58,16.10
2020,07,10,14,59,16.10
2020,07,10,15,00,12.90
2020,07,10,15,01,12.90
2020,07,10,15,02,14.50
2020,07,10,15,03,22.50
2020,07,10,15,04,16.10
2020,07,10,15,05,11.30
2020,07,10,15,06,19.30
2020,07,10,15,07,11.30
2020,07,10,15,08,24.20
2020,07,10,15,09,19.30
2020,07,10,15,10,16.10
2020,07,10,15,11,17.70
2020,07,10,15,12,25.70
2020,07,10,15,13,29.00
2020,07,10,15,14,12.90
2020,07,10,15,15,12.90
2020,07,10,15,16,25.70
2020,07,10,15,17,24.20
2020,07,10,15,18,16.10
2020,07,10,15,19,14.50
2020,07,10,15,20,14.50
2020,07,10,15,21,16.10
2020,07,10,15,22,29.00
2020,07,10,15,23,16.10
2020,07,10,15,24,17.70
2020,07,10,15,25,14.50
2020,07,10,15,26,11.30
2020,07,10,15,27,16.10
2020,07,10,15,28,19.30
2020,07,10,15,29,12.90
2020,07,10,15,30,20.90
2020,07,10,15,31,16.10
2020,07,10,15,32,16.10
2020,07,10,15,33,14.50
2020,07,10,15,34,20.90
2020,07,10,15,35,9.60
2020,07,10,15,36,19.30
2020,07,10,15,37,17.70
2020,07,10,15,38,12.90
2020,07,10,15,39,8.10
2020,07,10,15,40,12.90
2020,07,10,15,41,19.30
2020,07,10,15,42,6.40
2020,07,10,15,43,9.60
2020,07,10,15,44,12.90
2020,07,10,15,45,17.70
2020,07,10,15,46,16.10
2020,07,10,15,47,14.50
2020,07,10,15,48,16.10
2020,07,10,15,49,14.50
2020,07,10,15,50,19.30
2020,07,10,15,51,12.90
2020,07,10,15,52,12.90
2020,07,10,15,53,16.10
2020,07,10,15,54,22.50
2020,07,10,15,55,20.90
2020,07,10,15,56,12.90
2020,07,10,15,57,11.30
2020,07,10,15,58,17.70
2020,07,10,15,59,22.50
2020,07,10,16,00,14.50
2020,07,10,16,01,12.90
2020,07,10,16,02,27.40
2020,07,10,16,03,19.30
2020,07,10,16,04,14.50
2020,07,10,16,05,16.10
2020,07,10,16,06,24.20
2020,07,10,16,07,14.50
2020,07,10,16,08,12.90
2020,07,10,16,09,11.30
2020,07,10,16,10,19.30
2020,07,10,16,11,20.90
2020,07,10,16,12,14.50
2020,07,10,16,13,12.90
2020,07,10,16,14,6.40
2020,07,10,16,15,22.50
2020,07,10,16,16,12.90
2020,07,10,16,17,19.30
2020,07,10,16,18,27.40
2020,07,10,16,19,16.10
2020,07,10,16,20,17.70
2020,07,10,16,21,16.10
2020,07,10,16,22,16.10
2020,07,10,16,23,25.70
2020,07,10,16,24,12.90
2020,07,10,16,25,19.30
2020,07,10,16,26,16.10
2020,07,10,16,27,14.50
2020,07,10,16,28,22.50
2020,07,10,16,29,14.50
2020,07,10,16,30,17.70
2020,07,10,16,31,24.20
2020,07,10,16,32,19.30
2020,07,10,16,33,16.10
2020,07,10,16,34,20.90
2020,07,10,16,35,12.90
2020,07,10,16,36,16.10
2020,07,10,16,37,9.60
2020,07,10,16,38,16.10
2020,07,10,16,39,16.10
2020,07,10,16,40,17.70
2020,07,10,16,41,11.30
2020,07,10,16,42,12.90
2020,07,10,16,43,12.90
2020,07,10,16,44,11.30
2020,07,10,16,45,14.50
2020,07,10,16,46,9.60
2020,07,10,16,47,17.70
2020,07,10,16,48,19.30
2020,07,10,16,49,19.30
2020,07,10,16,50,4.80
2020,07,10,16,51,17.70
2020,07,10,16,52,11.30
2020,07,10,16,53,11.30
2020,07,10,16,54,9.60
2020,07,10,16,55,9.60
2020,07,10,16,56,9.60
2020,07,10,16,57,6.40
2020,07,10,16,58,16.10
2020,07,10,16,59,9.60
2020,07,10,17,00,16.10
2020,07,10,17,01,12.90
2020,07,10,17,02,12.90
2020,07,10,17,03,14.50
2020,07,10,17,04,16.10
2020,07,10,17,05,14.50
2020,07,10,17,06,17.70
2020,07,10,17,07,17.70
2020,07,10,17,08,16.10
2020,07,10,17,09,6.40
2020,07,10,17,10,9.60
2020,07,10,17,11,9.60
2020,07,10,17,12,6.40
2020,07,10,17,13,8.10
2020,07,10,17,14,6.40
2020,07,10,17,15,8.10
2020,07,10,17,16,14.50
2020,07,10,17,17,11.30
2020,07,10,17,18,6.40
2020,07,10,17,19,4.80
2020,07,10,17,20,11.30
2020,07,10,17,21,9.60
2020,07,10,17,22,3.20
2020,07,10,17,23,6.40
2020,07,10,17,24,6.40
2020,07,10,17,25,8.10
2020,07,10,17,26,6.40
2020,07,10,17,27,6.40
2020,07,10,17,28,14.50
2020,07,10,17,29,14.50
2020,07,10,17,30,8.10
2020,07,10,17,31,9.60
2020,07,10,17,32,9.60
2020,07,10,17,33,4.80
2020,07,10,17,34,8.10
2020,07,10,17,35,4.80
2020,07,10,17,36,12.90
2020,07,10,17,37,11.30
2020,07,10,17,38,20.90
2020,07,10,17,39,14.50
2020,07,10,17,40,12.90
2020,07,10,17,41,6.40
2020,07,10,17,42,4.80
2020,07,10,17,43,8.10
2020,07,10,17,44,4.80
2020,07,10,17,45,11.30
2020,07,10,17,46,9.60
2020,07,10,17,47,3.20
2020,07,10,17,48,3.20
2020,07,10,17,52,1.60
2020,07,10,17,53,6.40
2020,07,10,17,54,6.40
2020,07,10,17,55,3.20
2020,07,10,17,56,4.80
2020,07,10,17,57,4.80
2020,07,10,17,58,6.40
2020,07,10,17,59,4.80
2020,07,10,18,00,6.40
2020,07,10,18,01,6.40
2020,07,10,18,02,6.40
2020,07,10,18,03,4.80
2020,07,10,18,04,3.20
2020,07,10,18,05,3.20
2020,07,10,18,06,1.60
2020,07,10,18,07,8.10
2020,07,10,18,08,4.80
2020,07,10,18,09,3.20
2020,07,10,18,10,8.10
2020,07,10,18,11,8.10
2020,07,10,18,12,6.40
2020,07,10,18,13,9.60
2020,07,10,18,14,6.40
2020,07,10,18,15,11.30
2020,07,10,18,16,4.80
2020,07,10,18,17,3.20
2020,07,10,18,18,3.20
2020,07,10,18,19,3.20
2020,07,10,18,20,6.40
2020,07,10,18,21,3.20
2020,07,10,18,22,4.80
2020,07,10,18,23,4.80
2020,07,10,18,24,8.10
2020,07,10,18,25,6.40
2020,07,10,18,26,8.10
2020,07,10,18,27,8.10
2020,07,10,18,28,8.10
2020,07,10,18,29,4.80
2020,07,10,18,30,9.60
2020,07,10,18,31,6.40
2020,07,10,18,32,6.40
2020,07,10,18,33,4.80
2020,07,10,18,34,6.40
2020,07,10,18,35,4.80
2020,07,10,18,36,6.40
2020,07,10,18,37,9.60
2020,07,10,18,38,6.40
2020,07,10,18,39,9.60
2020,07,10,18,40,8.10
2020,07,10,18,41,6.40
2020,07,10,18,42,3.20
2020,07,10,18,43,4.80
2020,07,10,18,44,4.80
2020,07,10,19,02,6.40
2020,07,10,19,03,4.80
2020,07,10,19,04,4.80
2020,07,10,19,05,4.80
2020,07,10,19,06,4.80
2020,07,10,19,07,6.40
2020,07,10,19,08,6.40
2020,07,10,19,09,6.40
2020,07,10,19,10,4.80
2020,07,10,19,11,3.20
2020,07,10,19,12,8.10
2020,07,10,19,13,6.40
2020,07,10,19,14,6.40
2020,07,10,19,15,6.40
2020,07,10,19,16,4.80
2020,07,10,19,17,3.20
2020,07,10,19,18,4.80
2020,07,10,19,19,1.60
2020,07,10,19,20,1.60
2020,07,10,19,21,1.60
2020,07,10,19,22,1.60
2020,07,10,19,23,3.20
2020,07,10,19,24,4.80
2020,07,10,19,25,4.80
2020,07,10,19,26,4.80
2020,07,10,19,27,3.20
2020,07,10,19,29,3.20
2020,07,10,19,30,3.20
2020,07,10,19,33,1.60
2020,07,10,19,59,6.40
2020,07,10,20,00,4.80
2020,07,10,20,01,6.40
2020,07,10,20,02,4.80
2020,07,10,20,03,6.40
2020,07,10,20,04,6.40
2020,07,10,20,05,4.80
2020,07,10,20,06,4.80
2020,07,10,20,07,4.80
2020,07,10,20,08,3.20
2020,07,10,20,09,1.60
2020,07,10,20,10,3.20
2020,07,10,20,11,1.60
2020,07,10,20,12,3.20
2020,07,10,20,13,3.20
2020,07,10,20,14,3.20
2020,07,10,20,27,3.20
2020,07,10,20,28,3.20
2020,07,10,20,29,3.20
2020,07,10,20,30,3.20
2020,07,10,20,31,1.60
2020,07,10,21,56,4.80
2020,07,10,21,57,4.80
2020,07,10,21,58,4.80
2020,07,10,21,59,6.40
2020,07,10,22,00,6.40
2020,07,10,22,01,6.40
2020,07,10,22,02,6.40
2020,07,10,22,03,3.20
2020,07,10,22,06,3.20
2020,07,10,22,07,6.40
2020,07,10,22,08,6.40
2020,07,10,22,09,3.20
2020,07,10,22,10,3.20
2020,07,10,22,11,3.20
2020,07,10,22,12,4.80
2020,07,10,22,13,4.80
2020,07,10,22,14,4.80
2020,07,10,22,15,3.20
2020,07,10,22,16,3.20
2020,07,10,22,17,1.60
2020,07,10,22,18,1.60
2020,07,10,23,25,4.80
2020,07,10,23,26,4.80
2020,07,10,23,27,4.80
2020,07,10,23,28,3.20
2020,07,10,23,29,3.20
2020,07,10,23,30,1.60
2020,07,10,23,37,3.20
2020,07,10,23,38,4.80
2020,07,10,23,39,4.80
2020,07,10,23,40,3.20
2020,07,10,23,41,1.60
2020,07,10,23,42,1.60
